Wind_Speed
26 26 26 26 27 27 27 27 27 27 27 27 28 29 30 30 31 31 32 32 32 32 32 32 32 32 32 31 31 31 31 32 32 32 31 30 29 29
24 24 24 23 24 25 26 26 26 26 26 26 26 26 27 27 29 29 30 31 31 31 31 31 31 31 31 31 31 31 31 32 31 31 31 30 30 30
22 22 22 22 22 24 24 24 25 25 25 24 24 25 25 25 25 27 28 29 30 30 30 29 29 28 29 29 30 30 30 30 30 30 30 30 30 30
20 20 20 20 21 22 22 23 23 22 22 22 22 23 24 25 24 24 26 26 26 27 27 27 28 28 27 28 28 29 29 30 30 30 31 31 31 30
18 18 18 19 19 19 19 19 20 20 20 20 21 22 23 23 22 22 23 24 24 25 25 25 25 26 26 26 27 27 28 28 29 29 29 30 29 29
16 17 17 17 17 17 17 17 17 18 18 19 19 19 19 19 20 19 20 19 19 20 21 22 23 24 23 23 24 25 25 26 26 27 27 27 28 28
14 14 14 15 14 15 15 15 16 15 16 16 16 15 16 16 16 16 16 16 16 16 17 18 19 20 20 20 21 22 22 23 23 23 24 25 26 27
12 12 12 13 13 13 13 13 13 13 13 13 13 12 12 13 13 13 14 14 14 14 14 15 16 16 17 18 18 19 19 20 20 21 22 23 23 24
11 11 12 12 11 10 10 10 10 10 10 10 9 8 9 10 10 10 11 11 11 12 12 12 13 13 14 15 16 17 17 18 19 20 21 22 22 22
10 11 11 11 10 9 9 9 9 8 7 6 6 5 5 6 7 7 8 8 8 9 9 9 10 11 12 13 13 14 14 15 16 18 19 20 20 20
11 11 11 10 9 8 8 8 8 8 6 5 5 4 4 5 5 5 5 5 6 6 7 7 8 9 10 11 13 13 14 15 16 17 17 18 19 20
11 10 10 9 8 8 8 8 7 6 5 5 4 3 2 3 3 3 3 4 5 5 6 6 8 9 10 12 13 14 15 15 16 17 17 18 18 19
11 10 9 8 8 8 9 8 7 6 5 5 4 3 2 2 2 3 3 4 4 5 6 7 8 9 11 12 13 14 15 16 16 17 18 19 20 20
10 9 9 8 8 8 9 9 7 6 5 5 5 4 3 3 3 4 4 4 4 6 7 8 9 10 11 12 13 13 14 15 16 17 19 20 21 22
9 9 9 9 9 9 9 8 8 7 6 5 5 4 4 4 4 4 5 6 6 7 8 9 10 11 11 12 13 14 15 16 17 18 19 20 21 22
9 9 9 9 9 9 9 8 8 7 7 6 6 6 5 4 5 6 6 7 7 9 9 10 11 12 13 14 15 15 16 17 18 19 20 21 22 23
8 9 9 9 9 8 8 8 7 7 7 6 6 6 6 6 6 7 7 8 9 10 11 12 13 13 14 16 17 17 18 19 20 20 21 22 23 25
9 9 9 9 8 8 8 9 8 7 8 8 7 7 6 7 7 8 9 10 11 12 13 14 15 16 17 17 19 19 20 20 21 21 22 23 23 25
9 9 9 10 9 9 9 9 9 9 9 9 9 9 9 9 9 10 11 12 13 14 15 16 17 18 18 18 19 21 21 21 21 22 23 25 25 26
10 10 10 10 10 10 11 11 11 11 11 11 11 11 11 11 12 13 13 14 15 16 17 18 19 20 20 20 20 22 24 24 24 25 26 27 27 27
11 11 11 11 11 12 12 12 12 12 13 13 13 13 14 14 15 15 16 17 17 18 19 20 21 22 22 22 23 23 25 26 27 27 27 28 28 28
12 13 13 13 13 13 14 14 14 14 15 15 15 15 16 17 17 17 18 19 20 21 22 22 24 24 24 24 25 26 26 27 28 28 29 29 30 30
14 15 15 15 15 15 16 16 16 16 16 17 17 19 19 20 20 21 21 22 23 23 24 24 25 25 26 27 27 28 28 29 29 29 30 31 33 33
Wind_Direction
282 280 278 277 276 276 275 275 274 273 271 268 267 267 265 263 262 263 263 262 262 260 259 258 258 258 257 258 258 258 258 258 259 260 262 264 265 266
283 281 281 280 279 278 276 275 275 275 272 267 266 266 264 264 263 263 263 262 261 260 259 259 259 258 257 257 257 257 258 259 259 260 261 263 265 268
283 281 281 281 282 280 279 279 278 277 274 267 265 266 264 264 263 263 264 263 262 260 259 259 258 258 257 256 256 257 258 258 259 261 261 263 267 268
288 286 285 285 285 284 282 281 279 279 276 270 269 270 266 266 266 266 263 261 261 260 259 259 259 260 259 258 257 258 259 260 261 263 263 264 266 266
293 292 290 289 288 287 286 283 281 280 278 274 272 271 268 266 266 266 264 262 260 259 258 258 258 259 260 261 260 260 261 262 263 265 265 264 264 265
299 298 298 297 294 291 287 284 284 283 279 276 274 270 268 267 264 265 265 264 261 259 258 259 258 258 259 262 261 261 261 263 264 265 265 265 264 265
310 308 307 304 298 295 293 290 287 284 283 280 276 272 268 265 264 265 266 264 262 262 260 259 257 256 258 260 261 263 263 263 263 265 266 266 266 266
320 318 318 312 304 299 299 298 295 291 288 286 283 275 265 262 262 264 264 263 262 263 263 261 259 258 258 260 260 262 262 261 262 265 267 268 269 269
329 328 327 324 317 309 307 306 304 303 298 294 288 270 263 259 257 264 267 263 259 263 263 263 262 261 261 261 261 263 263 264 264 266 268 268 269 270
335 333 334 336 333 325 321 320 318 314 308 306 294 280 268 252 256 263 264 258 255 259 262 265 265 266 266 266 266 266 267 268 268 269 271 270 270 270
344 341 342 344 343 339 337 336 333 327 316 310 309 299 273 260 258 258 260 253 252 258 266 271 271 273 271 270 270 271 271 271 274 276 276 274 273 273
349 349 348 347 351 354 351 349 349 349 347 345 342 323 275 258 255 257 254 260 260 263 269 276 280 280 278 275 276 278 278 277 278 280 280 278 277 277
354 355 357 1 1 3 1 358 356 356 354 352 356 349 324 291 276 269 280 280 273 271 280 286 288 288 286 285 285 285 283 282 281 283 282 281 281 282
7 8 11 12 9 7 6 4 359 356 355 352 354 355 351 342 323 296 285 286 290 287 289 291 292 293 293 294 293 292 291 290 289 288 287 285 286 288
18 18 19 18 15 10 6 5 3 4 2 -0 356 348 336 325 322 321 313 305 302 305 304 303 301 298 297 299 298 295 294 295 295 295 293 292 293 293
18 19 18 15 13 13 13 13 13 12 5 356 348 341 329 320 311 307 309 310 307 307 309 311 310 307 305 304 301 299 299 299 298 297 295 295 297 297
15 17 14 12 11 11 10 7 6 6 3 1 356 347 340 331 323 317 312 310 311 310 309 310 311 310 307 305 304 303 303 302 300 298 297 298 299 299
7 7 5 1 359 359 358 355 354 353 350 346 341 338 334 326 318 313 310 309 310 310 310 310 309 309 308 307 305 304 304 304 302 301 301 302 300 300
356 352 351 350 348 347 345 344 341 338 336 334 330 327 323 319 315 310 307 305 307 309 308 308 308 308 308 308 306 305 305 304 304 303 302 302 302 300
343 340 337 338 338 337 336 335 333 329 327 326 324 320 317 315 313 310 309 307 306 308 308 307 308 308 307 307 307 306 305 305 304 302 300 300 301 301
332 332 330 327 325 325 325 325 324 323 320 318 317 315 313 310 309 308 306 305 304 305 305 305 306 307 307 307 307 307 305 305 305 304 302 301 302 302
323 323 323 322 318 317 316 315 314 313 313 312 312 311 309 308 307 306 306 305 304 303 303 303 303 303 303 304 306 305 304 303 303 303 304 303 303 304
321 319 319 318 315 312 312 311 310 310 309 308 306 306 305 304 303 301 302 302 302 302 301 300 301 301 301 302 303 304 304 303 302 302 303 303 303 304
Height
5748 5747 5747 5746 5745 5744 5743 5742 5742 5742 5742 5741 5741 5741 5742 5743 5744 5746 5747 5748 5750 5751 5752 5754 5755 5757 5758 5760 5761 5762 5764 5765 5766 5767 5768 5769 5769 5769
5742 5741 5739 5738 5737 5736 5735 5734 5734 5734 5734 5734 5733 5734 5734 5735 5736 5737 5738 5739 5741 5742 5744 5745 5747 5748 5750 5751 5753 5754 5755 5757 5758 5759 5760 5760 5761 5761
5735 5734 5733 5732 5730 5729 5728 5727 5726 5726 5726 5726 5726 5726 5727 5728 5728 5729 5730 5731 5732 5734 5736 5737 5738 5740 5741 5743 5744 5746 5747 5748 5749 5751 5751 5752 5752 5753
5729 5728 5727 5725 5724 5723 5722 5721 5719 5718 5718 5719 5719 5719 5719 5720 5721 5721 5722 5723 5725 5726 5728 5729 5731 5732 5733 5735 5736 5738 5739 5740 5741 5742 5743 5744 5744 5745
5724 5722 5721 5720 5719 5717 5716 5715 5713 5712 5712 5712 5712 5712 5713 5713 5714 5714 5715 5716 5718 5719 5720 5722 5723 5725 5726 5727 5729 5730 5731 5733 5734 5734 5735 5736 5736 5737
5719 5718 5716 5715 5713 5712 5710 5709 5708 5707 5707 5707 5707 5706 5707 5707 5708 5709 5709 5710 5711 5712 5713 5715 5716 5718 5719 5720 5722 5723 5724 5725 5726 5727 5727 5728 5729 5729
5716 5714 5712 5710 5709 5707 5706 5705 5704 5703 5702 5702 5701 5701 5702 5702 5703 5704 5705 5705 5706 5707 5708 5709 5710 5712 5713 5714 5715 5716 5717 5718 5719 5720 5720 5721 5721 5721
5713 5711 5709 5707 5706 5704 5702 5701 5700 5699 5698 5698 5697 5697 5697 5698 5699 5700 5700 5701 5702 5703 5704 5704 5705 5706 5707 5709 5710 5711 5712 5712 5713 5713 5714 5714 5714 5714
5711 5709 5707 5705 5703 5701 5700 5699 5697 5696 5695 5694 5694 5694 5694 5695 5696 5696 5697 5698 5699 5699 5700 5701 5701 5702 5703 5704 5705 5706 5706 5707 5707 5707 5708 5708 5708 5708
5710 5708 5706 5704 5702 5700 5699 5697 5696 5694 5693 5692 5692 5692 5692 5692 5693 5694 5695 5695 5696 5696 5697 5698 5698 5699 5699 5700 5700 5701 5701 5702 5702 5702 5702 5701 5701 5701
5709 5707 5705 5703 5701 5699 5698 5696 5695 5694 5692 5691 5691 5690 5690 5691 5691 5692 5692 5693 5693 5694 5695 5695 5695 5696 5696 5696 5697 5697 5697 5697 5697 5696 5696 5696 5695 5695
5708 5706 5704 5702 5701 5699 5698 5696 5695 5693 5692 5691 5691 5690 5690 5690 5690 5691 5691 5691 5692 5692 5693 5693 5693 5693 5693 5693 5693 5693 5693 5692 5692 5691 5691 5690 5689 5689
5708 5706 5704 5702 5701 5699 5698 5696 5695 5694 5693 5692 5691 5690 5690 5690 5690 5690 5690 5690 5691 5691 5691 5691 5691 5691 5690 5690 5689 5689 5688 5687 5687 5686 5685 5684 5683 5683
5708 5707 5705 5703 5701 5700 5698 5697 5695 5694 5693 5692 5691 5691 5690 5690 5689 5689 5689 5689 5689 5689 5689 5689 5688 5688 5687 5686 5686 5685 5684 5683 5682 5681 5679 5678 5677 5676
5709 5707 5705 5704 5702 5700 5699 5697 5696 5695 5694 5693 5692 5691 5690 5690 5689 5689 5688 5688 5688 5687 5687 5686 5685 5685 5684 5683 5682 5681 5679 5678 5676 5675 5673 5672 5670 5669
5710 5708 5706 5704 5703 5701 5700 5698 5697 5696 5694 5693 5692 5691 5690 5689 5689 5688 5688 5687 5686 5686 5685 5684 5682 5681 5680 5679 5677 5676 5674 5673 5671 5669 5667 5666 5663 5661
5711 5709 5707 5706 5704 5702 5701 5699 5698 5696 5695 5694 5692 5691 5690 5689 5688 5687 5686 5685 5684 5683 5682 5681 5679 5678 5677 5675 5673 5671 5669 5667 5665 5663 5661 5659 5657 5654
5711 5710 5708 5706 5705 5703 5701 5699 5698 5696 5695 5693 5692 5690 5689 5688 5686 5685 5684 5683 5682 5680 5679 5677 5676 5674 5673 5671 5668 5666 5664 5661 5659 5657 5654 5652 5650 5647
5711 5710 5708 5706 5704 5703 5701 5699 5697 5696 5694 5692 5691 5689 5688 5686 5685 5683 5682 5680 5679 5677 5675 5673 5671 5669 5668 5666 5664 5660 5658 5655 5653 5651 5648 5645 5643 5640
5711 5709 5707 5705 5704 5702 5700 5698 5696 5694 5692 5691 5689 5687 5685 5684 5682 5681 5679 5677 5675 5673 5671 5669 5667 5664 5662 5660 5658 5655 5651 5648 5646 5643 5641 5638 5635 5632
5709 5708 5706 5704 5702 5700 5698 5696 5694 5692 5690 5688 5686 5684 5682 5680 5679 5677 5675 5673 5671 5668 5666 5664 5661 5659 5656 5654 5651 5649 5646 5642 5638 5635 5632 5629 5626 5623
5707 5705 5703 5701 5699 5697 5695 5693 5691 5689 5687 5685 5683 5681 5679 5676 5674 5672 5670 5668 5666 5663 5661 5658 5656 5653 5650 5647 5644 5642 5639 5635 5631 5627 5623 5620 5616 5613
5705 5702 5700 5698 5696 5694 5692 5689 5687 5685 5683 5681 5678 5676 5674 5672 5669 5667 5665 5662 5660 5657 5654 5652 5649 5646 5643 5640 5637 5634 5630 5627 5623 5620 5617 5612 5608 5604